• In Uzbekistan
  • List of Countries
  • For 7 days
  • Water Temperature
  • Satellite Maps
  • Weather Map
  • Weather Widgets
  • user-avatar
    Login

    Hourly Weather Graz

    Today, 23 November, Thursday

    Time Temperature Precipitation Wind Pressure Humidity
    00:00 +5°C° 0 mm 1 mps 723 mmHg 84%
    01:00 +5°C° 0 mm 1 mps 723 mmHg 83%
    02:00 +5°C° 0 mm 1 mps 723 mmHg 83%
    03:00 +5°C° 0 mm 1 mps 722 mmHg 83%
    04:00 +5°C° 0 mm 1 mps 722 mmHg 83%
    05:00 +5°C° 0 mm 1 mps 722 mmHg 83%
    06:00 +5°C° 0 mm 1 mps 722 mmHg 83%
    07:00 +4°C° 0 mm 1 mps 722 mmHg 84%
    08:00 +5°C° 0 mm 1 mps 722 mmHg 80%
    09:00 +7°C° 0 mm 1 mps 722 mmHg 75%
    10:00 +9°C° 0 mm 1 mps 723 mmHg 71%
    11:00 +11°C° 0 mm 1 mps 723 mmHg 69%
    12:00 +12°C° 0 mm 2 mps 723 mmHg 67%
    13:00 +13°C° 0 mm 2 mps 723 mmHg 67%
    14:00 +12°C° 0 mm 1 mps 723 mmHg 73%
    15:00 +11°C° 0 mm 1 mps 723 mmHg 78%
    16:00 +10°C° 0 mm 1 mps 723 mmHg 84%
    17:00 +9°C° 0 mm 1 mps 723 mmHg 85%
    18:00 +8°C° 0 mm 1 mps 724 mmHg 86%
    19:00 +7°C° 0 mm 1 mps 724 mmHg 87%
    20:00 +7°C° 0 mm 1 mps 724 mmHg 86%
    21:00 +7°C° 0 mm 1 mps 725 mmHg 85%
    22:00 +6°C° 0 mm 1 mps 725 mmHg 84%
    23:00 +6°C° 0 mm 1 mps 725 mmHg 83%

    Tomorrow, 24 November, Friday

    Time Temperature Precipitation Wind Pressure Humidity
    00:00 +6°C° 0 mm 1 mps 725 mmHg 82%
    01:00 +6°C° 0 mm 1 mps 726 mmHg 80%
    02:00 +6°C° 0 mm 1 mps 726 mmHg 80%
    03:00 +6°C° 0 mm 1 mps 726 mmHg 79%
    04:00 +6°C° 0 mm 1 mps 725 mmHg 79%
    05:00 +6°C° 0 mm 1 mps 725 mmHg 78%
    06:00 +6°C° 0 mm 1 mps 725 mmHg 78%
    07:00 +6°C° 0 mm 1 mps 725 mmHg 78%
    08:00 +8°C° 0 mm 1 mps 726 mmHg 74%
    09:00 +9°C° 0 mm 1 mps 726 mmHg 69%
    10:00 +11°C° 0 mm 1 mps 726 mmHg 65%
    11:00 +12°C° 0 mm 1 mps 725 mmHg 62%
    12:00 +13°C° 0 mm 1 mps 725 mmHg 60%
    13:00 +14°C° 0 mm 1 mps 725 mmHg 57%
    14:00 +13°C° 0 mm 1 mps 725 mmHg 64%
    15:00 +11°C° 0 mm 1 mps 725 mmHg 71%
    16:00 +10°C° 0 mm 1 mps 724 mmHg 78%
    17:00 +9°C° 0 mm 1 mps 724 mmHg 80%
    18:00 +8°C° 0 mm 1 mps 724 mmHg 82%
    19:00 +7°C° 0 mm 1 mps 725 mmHg 85%
    20:00 +7°C° 0 mm 1 mps 724 mmHg 85%
    21:00 +7°C° 0 mm 1 mps 724 mmHg 85%
    22:00 +7°C° 0 mm 1 mps 724 mmHg 85%
    23:00 +6°C° 0 mm 1 mps 724 mmHg 85%

    Day after tomorrow, 25 November, Saturday

    Time Temperature Precipitation Wind Pressure Humidity
    00:00 +6°C° 0 mm 1 mps 724 mmHg 86%
    01:00 +6°C° 0 mm 1 mps 723 mmHg 87%
    02:00 +5°C° 0 mm 1 mps 723 mmHg 88%
    03:00 +5°C° 0 mm 1 mps 722 mmHg 88%
    04:00 +5°C° 0 mm 1 mps 722 mmHg 89%
    05:00 +5°C° 0 mm 1 mps 721 mmHg 90%
    06:00 +5°C° 0 mm 2 mps 721 mmHg 90%
    07:00 +5°C° 0 mm 2 mps 721 mmHg 91%
    08:00 +6°C° 0 mm 2 mps 720 mmHg 88%
    09:00 +7°C° 0 mm 2 mps 720 mmHg 86%
    10:00 +9°C° 0 mm 3 mps 719 mmHg 83%
    11:00 +10°C° 0 mm 3 mps 719 mmHg 81%
    12:00 +11°C° 0 mm 3 mps 718 mmHg 78%
    13:00 +12°C° 0 mm 4 mps 718 mmHg 76%
    14:00 +11°C° 0.1 mm 3 mps 718 mmHg 79%
    15:00 +10°C° 0.1 mm 3 mps 718 mmHg 83%
    16:00 +10°C° 0.1 mm 2 mps 718 mmHg 86%
    17:00 +9°C° 0.9 mm 2 mps 718 mmHg 88%
    18:00 +9°C° 0.9 mm 2 mps 718 mmHg 91%
    19:00 +9°C° 0.9 mm 2 mps 719 mmHg 93%
    20:00 +8°C° 2.5 mm 2 mps 719 mmHg 92%
    21:00 +8°C° 2.5 mm 2 mps 719 mmHg 91%
    22:00 +7°C° 2.5 mm 2 mps 719 mmHg 90%
    23:00 +6°C° 2.6 mm 2 mps 720 mmHg 91%

    26 November, Sunday

    Time Temperature Precipitation Wind Pressure Humidity
    00:00 +7°C° 2.6 mm 1 mps 720 mmHg 92%
    01:00 +6°C° 2.6 mm 1 mps 721 mmHg 93%
    02:00 +6°C° 0.8 mm 1 mps 721 mmHg 93%
    03:00 +6°C° 0.8 mm 1 mps 722 mmHg 93%
    04:00 +6°C° 0.8 mm 1 mps 722 mmHg 93%
    05:00 +6°C° 0.4 mm 1 mps 722 mmHg 92%
    06:00 +6°C° 0.4 mm 1 mps 723 mmHg 91%
    07:00 +4°C° 0.4 mm 2 mps 724 mmHg 90%
    08:00 +4°C° 0.2 mm 2 mps 724 mmHg 87%
    09:00 +5°C° 0.2 mm 2 mps 725 mmHg 83%
    10:00 +4°C° 0.2 mm 3 mps 725 mmHg 80%
    11:00 +4°C° 0.1 mm 3 mps 726 mmHg 77%
    12:00 +4°C° 0.1 mm 3 mps 726 mmHg 74%
    13:00 +4°C° 0.1 mm 4 mps 726 mmHg 71%
    14:00 +3°C° 0 mm 3 mps 727 mmHg 73%
    15:00 +2°C° 0 mm 3 mps 727 mmHg 75%
    16:00 +3°C° 0 mm 2 mps 727 mmHg 77%
    17:00 +2°C° 0 mm 2 mps 728 mmHg 78%
    18:00 +1°C° 0 mm 2 mps 728 mmHg 79%
    19:00 +1°C° 0 mm 2 mps 729 mmHg 80%
    20:00 -1°C° 0 mm 2 mps 729 mmHg 81%
    21:00 -2°C° 0 mm 2 mps 729 mmHg 83%
    22:00 -2°C° 0 mm 2 mps 730 mmHg 84%
    23:00 -2°C° 0 mm 2 mps 730 mmHg 84%

    27 November, Monday

    Time Temperature Precipitation Wind Pressure Humidity
    00:00 -3°C° 0 mm 2 mps 730 mmHg 84%
    01:00 -3°C° 0 mm 2 mps 730 mmHg 85%
    02:00 -3°C° 0 mm 2 mps 730 mmHg 85%
    03:00 -3°C° 0 mm 2 mps 730 mmHg 85%
    04:00 -1°C° 0 mm 1 mps 730 mmHg 85%
    05:00 -1°C° 0 mm 1 mps 730 mmHg 85%
    06:00 -2°C° 0 mm 1 mps 730 mmHg 85%
    07:00 -2°C° 0 mm 1 mps 730 mmHg 84%
    08:00 0°C° 0 mm 1 mps 730 mmHg 79%
    09:00 +1°C° 0 mm 1 mps 731 mmHg 73%
    10:00 +3°C° 0 mm 1 mps 731 mmHg 68%
    11:00 +3°C° 0 mm 1 mps 730 mmHg 64%
    12:00 +4°C° 0 mm 1 mps 730 mmHg 60%
    13:00 +5°C° 0 mm 1 mps 729 mmHg 56%
    14:00 +4°C° 0 mm 1 mps 729 mmHg 61%
    15:00 +2°C° 0 mm 0 mps 729 mmHg 65%
    16:00 +1°C° 0 mm 0 mps 729 mmHg 70%
    17:00 0°C° 0 mm 0 mps 729 mmHg 73%
    18:00 0°C° 0 mm 0 mps 729 mmHg 75%
    19:00 0°C° 0 mm 1 mps 729 mmHg 78%
    20:00 0°C° 0 mm 1 mps 729 mmHg 79%
    21:00 0°C° 0 mm 1 mps 729 mmHg 79%
    22:00 -1°C° 0 mm 1 mps 729 mmHg 80%
    23:00 -1°C° 0 mm 1 mps 728 mmHg 80%

    28 November, Tuesday

    Time Temperature Precipitation Wind Pressure Humidity
    00:00 -1°C° 0 mm 1 mps 728 mmHg 80%
    01:00 -1°C° 0 mm 1 mps 728 mmHg 80%
    02:00 -1°C° 0 mm 1 mps 727 mmHg 79%
    03:00 -1°C° 0 mm 1 mps 727 mmHg 78%
    04:00 -1°C° 0 mm 1 mps 727 mmHg 78%
    05:00 -1°C° 0 mm 1 mps 727 mmHg 77%
    06:00 -1°C° 0 mm 1 mps 726 mmHg 77%
    07:00 -2°C° 0 mm 1 mps 726 mmHg 76%
    08:00 0°C° 0 mm 1 mps 726 mmHg 71%
    09:00 +2°C° 0 mm 1 mps 726 mmHg 65%
    10:00 +3°C° 0 mm 1 mps 726 mmHg 60%
    11:00 +4°C° 0 mm 1 mps 725 mmHg 58%
    12:00 +5°C° 0 mm 1 mps 725 mmHg 57%
    13:00 +6°C° 0 mm 1 mps 724 mmHg 55%
    14:00 +4°C° 0 mm 1 mps 724 mmHg 61%
    15:00 +3°C° 0 mm 1 mps 723 mmHg 68%
    16:00 +2°C° 0 mm 1 mps 723 mmHg 74%
    17:00 +1°C° 0 mm 1 mps 723 mmHg 76%
    18:00 +1°C° 0 mm 1 mps 723 mmHg 78%
    19:00 0°C° 0 mm 1 mps 723 mmHg 80%
    20:00 0°C° 0 mm 1 mps 723 mmHg 81%
    21:00 0°C° 0 mm 1 mps 722 mmHg 81%
    22:00 0°C° 0 mm 1 mps 722 mmHg 81%
    23:00 0°C° 0 mm 1 mps 722 mmHg 82%
    Show more